Retour au catalogue

NOAA 16 DEB

ActifPO
NORAD 41236·DEBRIS·🇺🇸 United States

Lancé Sep 21, 2000 depuis Vandenberg Space Force Base

Loading…

Prochains Passages (prochaines 24 heures)

TLE

FraisSource: Space-Track

Époque: Sep 14, 2026, 04:50 UTC

1 41236U 00055ER  26257.20161343  .00004171  00000-0  10415-2 0  9994
2 41236  99.0441 160.4004 0028064 201.1408 158.8627 14.51914497560650

Suivez NOAA 16 DEB en temps réel avec AllMySat

Download on the App Store